Weather in Taunggyi

Myanmar     20°47′40″N   97°02′23″E
temp.,
°C
wind,
m/s
gust,
m/s
humid.,
%
clouds,
%
prec.,
mm/h
press.,
hPa
HPBL,
m
18 august, thu
thu1800:30+19sse279898 1.5 1007229
03:30+18sse259950 0.0 1006152
06:30+19se149897 0.0 1007178
09:30+23sse3578100 0.2 1007812
12:30+26s457234 1.9 10061163
15:30+24ssw358425 2.9 1004841
18:30+21s2595100 7.9 1005172
21:30+19sse2598100 1.0 1008184
19 august, fri
fri1900:30+19s259886 1.1 1008234
03:30+19sse139855 0.0 1007115
06:30+19sse239842 0.1 1008172
09:30+23s247744 0.1 1009820
12:30+25sw337389 1.4 10071243
15:30+24wsw2382100 4.0 1005744
18:30+21w1191100 6.7 100612
21:30+20sw1195100 0.1 100912
20 august, sat
sat2000:30+19ssw1297100 0.1 100944
03:30+19ssw119683 0.0 100815
06:30+19ssw119568 0.1 100950
09:30+25wsw117012 0.0 1009789
12:30+27w336182 0.1 10051525
15:30+26wsw3472100 1.2 1003854
18:30+21sw1195100 5.2 100513
21:30+21s1197100 0.5 100722
21 august, sun
sun2100:30+20ssw2398100 2.8 1006107
03:30+20s1197100 0.6 100520
06:30+20sw1197100 1.4 100662
09:30+21w1193100 1.0 1007213
12:30+21wsw129269 2.4 1006322
15:30+24sw237877 1.0 1003816
18:30+21sw2392100 1.7 100477
21:30+20sw1295100 0.2 100768
22 august, mon
mon2200:30+19ssw2295100 0.2 100678
03:30+18s119683 0.0 100520
06:30+19s119484 0.0 100637
09:30+20s129391 0.1 1008163
12:30+27wsw1165100 0.4 10041122
15:30+24ssw128795 2.7 1003231
18:30+21sw1193100 6.0 100412
21:30+20s1296100 3.2 100752